Change the Weather History Date:

Wednesday, July 3, 2013

  Actual Average Record
Temperature  
Mean Temperature 64 °F -  
Max Temperature 80 °F 78 °F 96 °F (1983)
Min Temperature 50 °F 52 °F 37 °F (2014)
Growing Degree Days 14 (Base 50)    
Moisture  
Dew Point 50 °F    
Average Humidity 60    
Maximum Humidity 89    
Minimum Humidity 36    
Precipitation  
Precipitation 0.00 in - - ()
Sea Level Pressure  
Sea Level Pressure 30.10 in    
Wind  
Wind Speed 3 mph (East)    
Max Wind Speed 12 mph    
Max Gust Speed 16 mph    
Visibility 10 miles    
Events      
Averages and records for this station are not official NWS values.
T = Trace of Precipitation, MM = Missing Value Source: NWS Daily Summary

Daily Weather History Graph

Daily Weather History Graph

Search for Another Location

Airport or City:

Trip Planner

Search our weather history database for the weather conditions in past years. The results will help you decide how hot, cold, wet, or windy it might be!

Date:

Astronomy

Jul. 03, 2013 Rise Set
Actual Time 5:55 AM EDT 9:31 PM EDT
Civil Twilight 5:17 AM EDT 10:08 PM EDT
Nautical Twilight 4:27 AM EDT 10:58 PM EDT
Astronomical Twilight 3:20 AM EDT 12:05 AM EDT
Moon 2:39 AM EDT 5:36 PM EDT
Length of Visible Light 16h 51m
Length of Day
15h 35m
Waning Crescent, 18% of the Moon is Illuminated
Jul 3
Waning Crescent
Jul 8
New
Jul 15
First Quarter
Jul 22
Full
Jul 29
Last Quarter

Hourly Weather History & Observations

Time (EDT) Temp. Dew Point Humidity Pressure Visibility Wind Dir Wind Speed Gust Speed Precip Events Conditions
12:54 AM 54.0 °F 48.0 °F 80% 30.12 in 10.0 mi Calm Calm - N/A   Clear
1:54 AM 54.0 °F 48.0 °F 80% 30.12 in 10.0 mi Calm Calm - N/A   Clear
2:54 AM 50.0 °F 46.9 °F 89% 30.12 in 10.0 mi Calm Calm - N/A   Mostly Cloudy
3:54 AM 54.0 °F 48.9 °F 83% 30.11 in 10.0 mi Calm Calm - N/A   Overcast
4:54 AM 53.1 °F 48.9 °F 86% 30.11 in 10.0 mi Calm Calm - N/A   Mostly Cloudy
5:54 AM 52.0 °F 48.9 °F 89% 30.12 in 10.0 mi Calm Calm - N/A   Overcast
6:54 AM 54.0 °F 50.0 °F 86% 30.13 in 10.0 mi Calm Calm - N/A   Overcast
7:54 AM 60.1 °F 50.0 °F 69% 30.13 in 10.0 mi Calm Calm - N/A   Clear
8:54 AM 64.9 °F 50.0 °F 58% 30.14 in 10.0 mi SE 5.8 mph - N/A   Clear
9:54 AM 69.1 °F 46.9 °F 45% 30.14 in 10.0 mi SSE 6.9 mph - N/A   Clear
10:54 AM 71.1 °F 45.0 °F 39% 30.14 in 10.0 mi ESE 4.6 mph - N/A   Clear
11:54 AM 73.9 °F 46.9 °F 38% 30.13 in 10.0 mi South 5.8 mph - N/A   Clear
12:54 PM 75.9 °F 48.0 °F 37% 30.12 in 10.0 mi East 8.1 mph 16.1 mph N/A   Scattered Clouds
1:54 PM 77.0 °F 48.9 °F 37% 30.11 in 10.0 mi ESE 5.8 mph - N/A   Partly Cloudy
2:54 PM 78.1 °F 48.9 °F 36% 30.08 in 10.0 mi Variable 5.8 mph - N/A   Mostly Cloudy
3:54 PM 78.1 °F 52.0 °F 40% 30.08 in 10.0 mi ENE 8.1 mph - N/A   Mostly Cloudy
4:54 PM 79.0 °F 52.0 °F 39% 30.07 in 10.0 mi North 5.8 mph - N/A   Partly Cloudy
5:54 PM 77.0 °F 53.1 °F 43% 30.06 in 10.0 mi NNE 11.5 mph - N/A   Clear
6:54 PM 75.9 °F 51.1 °F 42% 30.04 in 10.0 mi NE 11.5 mph - N/A   Clear
7:54 PM 75.0 °F 53.1 °F 46% 30.04 in 10.0 mi ENE 8.1 mph - N/A   Mostly Cloudy
8:54 PM 72.0 °F 55.0 °F 55% 30.04 in 9.0 mi NE 5.8 mph - N/A   Mostly Cloudy
9:54 PM 69.1 °F 55.9 °F 63% 30.05 in 10.0 mi ENE 3.5 mph - N/A   Mostly Cloudy
10:54 PM 62.1 °F 55.9 °F 80% 30.06 in 9.0 mi Calm Calm - N/A   Clear
11:54 PM 61.0 °F 55.9 °F 83% 30.06 in 9.0 mi Calm Calm - N/A   Clear